Year,Month,Day,Hour,Minute,Value (Times are PST for windgust in km/hr)
2024,03,10,00,00,56.30
2024,03,10,00,01,66.00
2024,03,10,00,02,56.30
2024,03,10,00,03,54.70
2024,03,10,00,04,61.20
2024,03,10,00,05,51.50
2024,03,10,00,06,61.20
2024,03,10,00,07,57.90
2024,03,10,00,08,54.70
2024,03,10,00,09,64.40
2024,03,10,00,10,49.90
2024,03,10,00,11,51.50
2024,03,10,00,12,46.70
2024,03,10,00,13,53.10
2024,03,10,00,14,51.50
2024,03,10,00,15,59.50
2024,03,10,00,16,62.70
2024,03,10,00,17,49.90
2024,03,10,00,18,59.50
2024,03,10,00,19,53.10
2024,03,10,00,20,45.10
2024,03,10,00,21,49.90
2024,03,10,00,22,46.70
2024,03,10,00,23,43.50
2024,03,10,00,24,53.10
2024,03,10,00,25,38.60
2024,03,10,00,26,56.30
2024,03,10,00,27,56.30
2024,03,10,00,28,46.70
2024,03,10,00,29,69.20
2024,03,10,00,30,62.70
2024,03,10,00,31,57.90
2024,03,10,00,32,61.20
2024,03,10,00,33,51.50
2024,03,10,00,34,59.50
2024,03,10,00,35,51.50
2024,03,10,00,36,43.50
2024,03,10,00,37,56.30
2024,03,10,00,38,57.90
2024,03,10,00,39,51.50
2024,03,10,00,40,45.10
2024,03,10,00,41,43.50
2024,03,10,00,42,53.10
2024,03,10,00,43,49.90
2024,03,10,00,44,51.50
2024,03,10,00,45,53.10
2024,03,10,00,46,40.20
2024,03,10,00,47,43.50
2024,03,10,00,48,51.50
2024,03,10,00,49,49.90
2024,03,10,00,50,51.50
2024,03,10,00,51,49.90
2024,03,10,00,52,54.70
2024,03,10,00,53,66.00
2024,03,10,00,54,51.50
2024,03,10,00,55,57.90
2024,03,10,00,56,49.90
2024,03,10,00,57,67.60
2024,03,10,00,58,61.20
2024,03,10,00,59,54.70
2024,03,10,01,00,45.10
2024,03,10,01,01,70.80
2024,03,10,01,02,59.50
2024,03,10,01,03,48.30
2024,03,10,01,04,61.20
2024,03,10,01,05,48.30
2024,03,10,01,06,57.90
2024,03,10,01,07,64.40
2024,03,10,01,08,57.90
2024,03,10,01,09,59.50
2024,03,10,01,10,74.00
2024,03,10,01,11,77.30
2024,03,10,01,12,61.20
2024,03,10,01,13,61.20
2024,03,10,01,14,56.30
2024,03,10,01,15,70.80
2024,03,10,01,16,61.20
2024,03,10,01,17,64.40
2024,03,10,01,18,61.20
2024,03,10,01,19,56.30
2024,03,10,01,20,66.00
2024,03,10,01,21,66.00
2024,03,10,01,22,69.20
2024,03,10,01,23,57.90
2024,03,10,01,24,78.80
2024,03,10,01,25,70.80
2024,03,10,01,26,74.00
2024,03,10,01,27,77.30
2024,03,10,01,28,62.70
2024,03,10,01,29,72.40
2024,03,10,01,30,64.40
2024,03,10,01,31,69.20
2024,03,10,01,32,62.70
2024,03,10,01,33,61.20
2024,03,10,01,34,67.60
2024,03,10,01,35,66.00
2024,03,10,01,36,70.80
2024,03,10,01,37,57.90
2024,03,10,01,38,51.50
2024,03,10,01,39,54.70
2024,03,10,01,40,59.50
2024,03,10,01,41,70.80
2024,03,10,01,42,56.30
2024,03,10,01,43,59.50
2024,03,10,01,44,51.50
2024,03,10,01,45,49.90
2024,03,10,01,46,57.90
2024,03,10,01,47,57.90
2024,03,10,01,48,66.00
2024,03,10,01,49,57.90
2024,03,10,01,50,61.20
2024,03,10,01,51,49.90
2024,03,10,01,52,57.90
2024,03,10,01,53,75.60
2024,03,10,01,54,46.70
2024,03,10,01,55,45.10
2024,03,10,01,56,57.90
2024,03,10,01,57,49.90
2024,03,10,01,58,53.10
2024,03,10,01,59,59.50
2024,03,10,03,00,56.30
2024,03,10,03,01,61.20
2024,03,10,03,02,64.40
2024,03,10,03,03,59.50
2024,03,10,03,04,56.30
2024,03,10,03,05,49.90
2024,03,10,03,06,54.70
2024,03,10,03,07,49.90
2024,03,10,03,08,54.70
2024,03,10,03,09,59.50
2024,03,10,03,10,51.50
2024,03,10,03,11,46.70
2024,03,10,03,12,69.20
2024,03,10,03,13,69.20
2024,03,10,03,14,75.60
2024,03,10,03,15,62.70
2024,03,10,03,16,48.30
2024,03,10,03,17,59.50
2024,03,10,03,18,61.20
2024,03,10,03,19,62.70
2024,03,10,03,20,61.20
2024,03,10,03,21,69.20
2024,03,10,03,22,62.70
2024,03,10,03,23,57.90
2024,03,10,03,24,48.30
2024,03,10,03,25,54.70
2024,03,10,03,26,48.30
2024,03,10,03,27,54.70
2024,03,10,03,28,54.70
2024,03,10,03,29,59.50
2024,03,10,03,30,59.50
2024,03,10,03,31,69.20
2024,03,10,03,32,45.10
2024,03,10,03,33,54.70
2024,03,10,03,34,51.50
2024,03,10,03,35,49.90
2024,03,10,03,36,46.70
2024,03,10,03,37,53.10
2024,03,10,03,38,59.50
2024,03,10,03,39,64.40
2024,03,10,03,40,57.90
2024,03,10,03,41,41.80
2024,03,10,03,42,49.90
2024,03,10,03,43,62.70
2024,03,10,03,44,66.00
2024,03,10,03,45,62.70
2024,03,10,03,46,53.10
2024,03,10,03,47,51.50
2024,03,10,03,48,54.70
2024,03,10,03,49,66.00
2024,03,10,03,50,61.20
2024,03,10,03,51,51.50
2024,03,10,03,52,51.50
2024,03,10,03,53,62.70
2024,03,10,03,54,67.60
2024,03,10,03,55,64.40
2024,03,10,03,56,54.70
2024,03,10,03,57,53.10
2024,03,10,03,58,54.70
2024,03,10,03,59,59.50
2024,03,10,04,00,54.70
2024,03,10,04,01,54.70
2024,03,10,04,02,59.50
2024,03,10,04,03,56.30
2024,03,10,04,04,57.90
2024,03,10,04,05,64.40
2024,03,10,04,06,59.50
2024,03,10,04,07,62.70
2024,03,10,04,08,61.20
2024,03,10,04,09,59.50
2024,03,10,04,10,57.90
2024,03,10,04,11,51.50
2024,03,10,04,12,57.90
2024,03,10,04,13,57.90
2024,03,10,04,14,48.30
2024,03,10,04,15,46.70
2024,03,10,04,16,48.30
2024,03,10,04,17,62.70
2024,03,10,04,18,70.80
2024,03,10,04,19,56.30
2024,03,10,04,20,49.90
2024,03,10,04,21,53.10
2024,03,10,04,22,49.90
2024,03,10,04,23,45.10
2024,03,10,04,24,54.70
2024,03,10,04,25,48.30
2024,03,10,04,26,56.30
2024,03,10,04,27,54.70
2024,03,10,04,28,62.70
2024,03,10,04,29,53.10
2024,03,10,04,30,46.70
2024,03,10,04,31,48.30
2024,03,10,04,32,46.70
2024,03,10,04,33,54.70
2024,03,10,04,34,54.70
2024,03,10,04,35,51.50
2024,03,10,04,36,46.70
2024,03,10,04,37,51.50
2024,03,10,04,38,53.10
2024,03,10,04,39,49.90
2024,03,10,04,40,48.30
2024,03,10,04,41,51.50
2024,03,10,04,42,51.50
2024,03,10,04,43,62.70
2024,03,10,04,44,48.30
2024,03,10,04,45,53.10
2024,03,10,04,46,49.90
2024,03,10,04,47,53.10
2024,03,10,04,48,49.90
2024,03,10,04,49,53.10
2024,03,10,04,50,53.10
2024,03,10,04,51,46.70
2024,03,10,04,52,49.90
2024,03,10,04,53,53.10
2024,03,10,04,54,46.70
2024,03,10,04,55,48.30
2024,03,10,04,56,48.30
2024,03,10,04,57,43.50
2024,03,10,04,58,45.10
2024,03,10,04,59,43.50
2024,03,10,05,00,46.70
2024,03,10,05,01,46.70
2024,03,10,05,02,43.50
2024,03,10,05,03,33.80
2024,03,10,05,04,33.80
2024,03,10,05,05,33.80
2024,03,10,05,06,33.80
2024,03,10,05,07,32.20
2024,03,10,05,08,40.20
2024,03,10,05,09,38.60
2024,03,10,05,10,32.20
2024,03,10,05,11,32.20
2024,03,10,05,12,22.50
2024,03,10,05,13,24.20
2024,03,10,05,14,29.00
2024,03,10,05,15,32.20
2024,03,10,05,16,32.20
2024,03,10,05,17,30.60
2024,03,10,05,18,32.20
2024,03,10,05,19,32.20
2024,03,10,05,20,51.50
2024,03,10,05,21,45.10
2024,03,10,05,22,40.20
2024,03,10,05,23,45.10
2024,03,10,05,24,33.80
2024,03,10,05,25,38.60
2024,03,10,05,26,35.40
2024,03,10,05,27,41.80
2024,03,10,05,28,35.40
2024,03,10,05,29,41.80
2024,03,10,05,30,43.50
2024,03,10,05,31,38.60
2024,03,10,05,32,40.20
2024,03,10,05,33,32.20
2024,03,10,05,34,37.00
2024,03,10,05,35,35.40
2024,03,10,05,36,32.20
2024,03,10,05,37,29.00
2024,03,10,05,38,32.20
2024,03,10,05,39,40.20
2024,03,10,05,40,45.10
2024,03,10,05,41,35.40
2024,03,10,05,42,49.90
2024,03,10,05,43,43.50
2024,03,10,05,44,43.50
2024,03,10,05,45,37.00
2024,03,10,05,46,38.60
2024,03,10,05,47,38.60
2024,03,10,05,48,38.60
2024,03,10,05,49,30.60
2024,03,10,05,50,40.20
2024,03,10,05,51,43.50
2024,03,10,05,52,38.60
2024,03,10,05,53,48.30
2024,03,10,05,54,45.10
2024,03,10,05,55,48.30
2024,03,10,05,56,46.70
2024,03,10,05,57,41.80
2024,03,10,05,58,37.00
2024,03,10,05,59,43.50
2024,03,10,06,00,37.00
2024,03,10,06,01,43.50
2024,03,10,06,02,43.50
2024,03,10,06,03,40.20
2024,03,10,06,04,49.90
2024,03,10,06,05,37.00
2024,03,10,06,06,35.40
2024,03,10,06,07,43.50
2024,03,10,06,08,41.80
2024,03,10,06,09,46.70
2024,03,10,06,10,41.80
2024,03,10,06,11,33.80
2024,03,10,06,12,32.20
2024,03,10,06,13,41.80
2024,03,10,06,14,35.40
2024,03,10,06,15,33.80
2024,03,10,06,16,32.20
2024,03,10,06,17,30.60
2024,03,10,06,18,29.00
2024,03,10,06,19,30.60
2024,03,10,06,20,37.00
2024,03,10,06,21,45.10
2024,03,10,06,22,35.40
2024,03,10,06,23,41.80
2024,03,10,06,24,41.80
2024,03,10,06,25,37.00
2024,03,10,06,26,33.80
2024,03,10,06,27,33.80
2024,03,10,06,28,38.60
2024,03,10,06,29,30.60
2024,03,10,06,30,25.70
2024,03,10,06,31,20.90
2024,03,10,06,32,35.40
2024,03,10,06,33,35.40
2024,03,10,06,34,30.60
2024,03,10,06,35,32.20
2024,03,10,06,36,40.20
2024,03,10,06,37,33.80
2024,03,10,06,38,43.50
2024,03,10,06,39,35.40
2024,03,10,06,40,43.50
2024,03,10,06,41,35.40
2024,03,10,06,42,40.20
2024,03,10,06,43,38.60
2024,03,10,06,44,35.40
2024,03,10,06,45,33.80
2024,03,10,06,46,33.80
2024,03,10,06,47,32.20
2024,03,10,06,48,30.60
2024,03,10,06,49,35.40
2024,03,10,06,50,27.40
2024,03,10,06,51,29.00
2024,03,10,06,52,27.40
2024,03,10,06,53,32.20
2024,03,10,06,54,29.00
2024,03,10,06,55,32.20
2024,03,10,06,56,37.00
2024,03,10,06,57,32.20
2024,03,10,06,58,33.80
2024,03,10,06,59,22.50
2024,03,10,07,00,19.30
2024,03,10,07,01,20.90
2024,03,10,07,02,20.90
2024,03,10,07,03,22.50
2024,03,10,07,04,20.90
2024,03,10,07,05,24.20
2024,03,10,07,06,24.20
2024,03,10,07,07,24.20
2024,03,10,07,08,24.20
2024,03,10,07,09,17.70
2024,03,10,07,10,12.90
2024,03,10,07,11,14.50
2024,03,10,07,12,14.50
2024,03,10,07,13,14.50
2024,03,10,07,14,16.10
2024,03,10,07,15,14.50
2024,03,10,07,16,14.50
2024,03,10,07,17,16.10
2024,03,10,07,18,19.30
2024,03,10,07,19,19.30
2024,03,10,07,20,19.30
2024,03,10,07,21,12.90
2024,03,10,07,22,11.30
2024,03,10,07,23,6.40
2024,03,10,07,24,6.40
2024,03,10,07,25,3.20
2024,03,10,07,26,3.20
2024,03,10,07,27,6.40
2024,03,10,07,28,3.20
2024,03,10,07,29,1.60
2024,03,10,07,31,1.60
2024,03,10,07,35,1.60
2024,03,10,07,36,1.60
2024,03,10,07,37,3.20
2024,03,10,07,38,1.60
2024,03,10,07,39,6.40
2024,03,10,07,40,4.80
2024,03,10,07,41,3.20
2024,03,10,07,42,3.20
2024,03,10,07,43,1.60
2024,03,10,07,44,3.20
2024,03,10,07,45,1.60
2024,03,10,07,46,4.80
2024,03,10,07,47,3.20
2024,03,10,07,52,1.60
2024,03,10,07,54,3.20
2024,03,10,07,55,1.60
2024,03,10,07,56,1.60
2024,03,10,07,57,1.60
2024,03,10,08,02,3.20
2024,03,10,08,03,1.60
2024,03,10,08,04,1.60
2024,03,10,08,05,1.60
2024,03,10,08,06,3.20
2024,03,10,08,07,3.20
2024,03,10,08,08,8.10
2024,03,10,08,09,6.40
2024,03,10,08,10,4.80
2024,03,10,08,11,4.80
2024,03,10,08,12,4.80
2024,03,10,08,13,3.20
2024,03,10,08,14,3.20
2024,03,10,08,15,3.20
2024,03,10,08,16,3.20
2024,03,10,08,17,4.80
2024,03,10,08,18,3.20
2024,03,10,08,19,3.20
2024,03,10,08,20,3.20
2024,03,10,08,21,1.60
2024,03,10,08,23,3.20
2024,03,10,08,24,1.60
2024,03,10,08,25,1.60
2024,03,10,08,26,3.20
2024,03,10,08,32,1.60
2024,03,10,08,33,1.60
2024,03,10,08,34,3.20
2024,03,10,08,35,4.80
2024,03,10,08,36,3.20
2024,03,10,08,37,3.20
2024,03,10,08,38,3.20
2024,03,10,08,39,1.60
2024,03,10,08,44,1.60
2024,03,10,08,48,1.60
2024,03,10,09,00,1.60
2024,03,10,09,01,1.60
2024,03,10,09,02,1.60
2024,03,10,09,03,3.20
2024,03,10,09,49,1.60
2024,03,10,09,50,4.80
2024,03,10,09,51,4.80
2024,03,10,09,52,6.40
2024,03,10,09,53,6.40
2024,03,10,09,54,4.80
2024,03,10,09,55,3.20
2024,03,10,09,56,1.60
2024,03,10,09,57,1.60
2024,03,10,09,58,1.60
2024,03,10,10,21,1.60
2024,03,10,10,22,1.60
2024,03,10,10,25,3.20
2024,03,10,10,26,4.80
2024,03,10,10,27,8.10
2024,03,10,10,28,11.30
2024,03,10,10,29,12.90
2024,03,10,10,30,12.90
2024,03,10,10,31,12.90
2024,03,10,10,32,12.90
2024,03,10,10,33,12.90
2024,03,10,10,34,12.90
2024,03,10,10,35,12.90
2024,03,10,10,36,12.90
2024,03,10,10,37,14.50
2024,03,10,10,38,14.50
2024,03,10,10,39,14.50
2024,03,10,10,40,14.50
2024,03,10,10,41,14.50
2024,03,10,10,42,14.50
2024,03,10,10,43,14.50
2024,03,10,10,44,16.10
2024,03,10,10,45,14.50
2024,03,10,10,46,16.10
2024,03,10,10,47,14.50
2024,03,10,10,48,14.50
2024,03,10,10,49,14.50
2024,03,10,10,50,14.50
2024,03,10,10,51,14.50
2024,03,10,10,52,14.50
2024,03,10,10,53,14.50
2024,03,10,10,54,17.70
2024,03,10,10,55,17.70
2024,03,10,10,56,19.30
2024,03,10,10,57,17.70
2024,03,10,10,58,22.50
2024,03,10,10,59,20.90
2024,03,10,11,00,25.70
2024,03,10,11,01,32.20
2024,03,10,11,02,24.20
2024,03,10,11,03,22.50
2024,03,10,11,04,20.90
2024,03,10,11,05,29.00
2024,03,10,11,06,27.40
2024,03,10,11,07,24.20
2024,03,10,11,08,24.20
2024,03,10,11,09,24.20
2024,03,10,11,10,22.50
2024,03,10,11,11,22.50
2024,03,10,11,12,24.20
2024,03,10,11,13,22.50
2024,03,10,11,14,17.70
2024,03,10,11,15,17.70
2024,03,10,11,16,16.10
2024,03,10,11,17,17.70
2024,03,10,11,18,20.90
2024,03,10,11,19,25.70
2024,03,10,11,20,25.70
2024,03,10,11,21,24.20
2024,03,10,11,22,19.30
2024,03,10,11,23,22.50
2024,03,10,11,24,29.00
2024,03,10,11,25,27.40
2024,03,10,11,26,27.40
2024,03,10,11,27,30.60
2024,03,10,11,28,25.70
2024,03,10,11,29,20.90
2024,03,10,11,30,17.70
2024,03,10,11,31,22.50
2024,03,10,11,32,16.10
2024,03,10,11,33,27.40
2024,03,10,11,34,27.40
2024,03,10,11,35,19.30
2024,03,10,11,36,20.90
2024,03,10,11,37,22.50
2024,03,10,11,38,24.20
2024,03,10,11,39,24.20
2024,03,10,11,40,27.40
2024,03,10,11,41,22.50
2024,03,10,11,42,24.20
2024,03,10,11,43,24.20
2024,03,10,11,44,25.70
2024,03,10,11,45,24.20
2024,03,10,11,46,25.70
2024,03,10,11,47,24.20
2024,03,10,11,48,20.90
2024,03,10,11,49,19.30
2024,03,10,11,50,20.90
2024,03,10,11,51,16.10
2024,03,10,11,52,17.70
2024,03,10,11,53,20.90
2024,03,10,11,54,19.30
2024,03,10,11,55,19.30
2024,03,10,11,56,17.70
2024,03,10,11,57,17.70
2024,03,10,11,58,19.30
2024,03,10,11,59,17.70
2024,03,10,12,00,17.70
2024,03,10,12,01,17.70
2024,03,10,12,02,17.70
2024,03,10,12,03,19.30
2024,03,10,12,04,20.90
2024,03,10,12,05,19.30
2024,03,10,12,06,17.70
2024,03,10,12,07,17.70
2024,03,10,12,08,16.10
2024,03,10,12,09,14.50
2024,03,10,12,10,12.90
2024,03,10,12,11,16.10
2024,03,10,12,12,17.70
2024,03,10,12,13,14.50
2024,03,10,12,14,14.50
2024,03,10,12,15,14.50
2024,03,10,12,16,17.70
2024,03,10,12,17,14.50
2024,03,10,12,18,12.90
2024,03,10,12,19,12.90
2024,03,10,12,20,11.30
2024,03,10,12,21,12.90
2024,03,10,12,22,9.60
2024,03,10,12,23,9.60
2024,03,10,12,24,11.30
2024,03,10,12,25,12.90
2024,03,10,12,26,12.90
2024,03,10,12,27,11.30
2024,03,10,12,28,9.60
2024,03,10,12,29,6.40
2024,03,10,12,30,6.40
2024,03,10,12,31,4.80
2024,03,10,12,32,8.10
2024,03,10,12,33,6.40
2024,03,10,12,34,9.60
2024,03,10,12,35,19.30
2024,03,10,12,36,17.70
2024,03,10,12,37,27.40
2024,03,10,12,38,25.70
2024,03,10,12,39,24.20
2024,03,10,12,40,24.20
2024,03,10,12,41,25.70
2024,03,10,12,42,22.50
2024,03,10,12,43,24.20
2024,03,10,12,44,25.70
2024,03,10,12,45,29.00
2024,03,10,12,46,24.20
2024,03,10,12,47,29.00
2024,03,10,12,48,29.00
2024,03,10,12,49,29.00
2024,03,10,12,50,24.20
2024,03,10,12,51,27.40
2024,03,10,12,52,24.20
2024,03,10,12,53,22.50
2024,03,10,12,54,17.70
2024,03,10,12,55,22.50
2024,03,10,12,56,27.40
2024,03,10,12,57,25.70
2024,03,10,12,58,25.70
2024,03,10,12,59,27.40
2024,03,10,13,00,35.40
2024,03,10,13,01,33.80
2024,03,10,13,02,25.70
2024,03,10,13,03,27.40
2024,03,10,13,04,30.60
2024,03,10,13,05,24.20
2024,03,10,13,06,29.00
2024,03,10,13,07,29.00
2024,03,10,13,08,27.40
2024,03,10,13,09,25.70
2024,03,10,13,10,25.70
2024,03,10,13,11,32.20
2024,03,10,13,12,30.60
2024,03,10,13,13,33.80
2024,03,10,13,14,32.20
2024,03,10,13,15,32.20
2024,03,10,13,16,30.60
2024,03,10,13,17,30.60
2024,03,10,13,18,30.60
2024,03,10,13,19,24.20
2024,03,10,13,20,33.80
2024,03,10,13,21,29.00
2024,03,10,13,22,29.00
2024,03,10,13,23,27.40
2024,03,10,13,24,24.20
2024,03,10,13,25,29.00
2024,03,10,13,26,30.60
2024,03,10,13,27,25.70
2024,03,10,13,28,22.50
2024,03,10,13,29,25.70
2024,03,10,13,30,19.30
2024,03,10,13,31,27.40
2024,03,10,13,32,22.50
2024,03,10,13,33,22.50
2024,03,10,13,34,22.50
2024,03,10,13,35,19.30
2024,03,10,13,36,19.30
2024,03,10,13,37,22.50
2024,03,10,13,38,20.90
2024,03,10,13,39,24.20
2024,03,10,13,40,27.40
2024,03,10,13,41,27.40
2024,03,10,13,42,25.70
2024,03,10,13,43,25.70
2024,03,10,13,44,22.50
2024,03,10,13,45,24.20
2024,03,10,13,46,17.70
2024,03,10,13,47,19.30
2024,03,10,13,48,25.70
2024,03,10,13,49,27.40
2024,03,10,13,50,29.00
2024,03,10,13,51,25.70
2024,03,10,13,52,27.40
2024,03,10,13,53,27.40
2024,03,10,13,54,19.30
2024,03,10,13,55,25.70
2024,03,10,13,56,22.50
2024,03,10,13,57,25.70
2024,03,10,13,58,24.20
2024,03,10,13,59,24.20
2024,03,10,14,00,17.70
2024,03,10,14,01,19.30
2024,03,10,14,02,17.70
2024,03,10,14,03,17.70
2024,03,10,14,04,19.30
2024,03,10,14,05,16.10
2024,03,10,14,06,17.70
2024,03,10,14,07,17.70
2024,03,10,14,08,16.10
2024,03,10,14,09,17.70
2024,03,10,14,10,14.50
2024,03,10,14,11,12.90
2024,03,10,14,12,20.90
2024,03,10,14,13,20.90
2024,03,10,14,14,22.50
2024,03,10,14,15,27.40
2024,03,10,14,16,24.20
2024,03,10,14,17,27.40
2024,03,10,14,18,24.20
2024,03,10,14,19,24.20
2024,03,10,14,20,22.50
2024,03,10,14,21,22.50
2024,03,10,14,22,25.70
2024,03,10,14,23,25.70
2024,03,10,14,24,27.40
2024,03,10,14,25,27.40
2024,03,10,14,26,25.70
2024,03,10,14,27,29.00
2024,03,10,14,28,27.40
2024,03,10,14,29,24.20
2024,03,10,14,30,27.40
2024,03,10,14,31,27.40
2024,03,10,14,32,29.00
2024,03,10,14,33,25.70
2024,03,10,14,34,30.60
2024,03,10,14,35,22.50
2024,03,10,14,36,20.90
2024,03,10,14,37,27.40
2024,03,10,14,38,24.20
2024,03,10,14,39,27.40
2024,03,10,14,40,25.70
2024,03,10,14,41,27.40
2024,03,10,14,42,22.50
2024,03,10,14,43,22.50
2024,03,10,14,44,25.70
2024,03,10,14,45,22.50
2024,03,10,14,46,29.00
2024,03,10,14,47,24.20
2024,03,10,14,48,24.20
2024,03,10,14,49,24.20
2024,03,10,14,50,20.90
2024,03,10,14,51,24.20
2024,03,10,14,52,20.90
2024,03,10,14,53,22.50
2024,03,10,14,54,24.20
2024,03,10,14,55,29.00
2024,03,10,14,56,32.20
2024,03,10,14,57,20.90
2024,03,10,14,58,24.20
2024,03,10,14,59,27.40
2024,03,10,15,00,25.70
2024,03,10,15,01,22.50
2024,03,10,15,02,20.90
2024,03,10,15,03,19.30
2024,03,10,15,04,20.90
2024,03,10,15,05,20.90
2024,03,10,15,06,22.50
2024,03,10,15,07,22.50
2024,03,10,15,08,20.90
2024,03,10,15,09,22.50
2024,03,10,15,10,20.90
2024,03,10,15,11,19.30
2024,03,10,15,12,16.10
2024,03,10,15,13,19.30
2024,03,10,15,14,22.50
2024,03,10,15,15,24.20
2024,03,10,15,16,22.50
2024,03,10,15,17,25.70
2024,03,10,15,18,20.90
2024,03,10,15,19,19.30
2024,03,10,15,20,25.70
2024,03,10,15,21,19.30
2024,03,10,15,22,22.50
2024,03,10,15,23,19.30
2024,03,10,15,24,19.30
2024,03,10,15,25,20.90
2024,03,10,15,26,19.30
2024,03,10,15,27,24.20
2024,03,10,15,28,22.50
2024,03,10,15,29,16.10
2024,03,10,15,30,17.70
2024,03,10,15,31,16.10
2024,03,10,15,32,16.10
2024,03,10,15,33,11.30
2024,03,10,15,34,20.90
2024,03,10,15,35,25.70
2024,03,10,15,36,17.70
2024,03,10,15,37,25.70
2024,03,10,15,38,24.20
2024,03,10,15,39,22.50
2024,03,10,15,40,19.30
2024,03,10,15,41,16.10
2024,03,10,15,42,17.70
2024,03,10,15,43,16.10
2024,03,10,15,44,17.70
2024,03,10,15,45,9.60
2024,03,10,15,46,14.50
2024,03,10,15,47,16.10
2024,03,10,15,48,12.90
2024,03,10,15,49,12.90
2024,03,10,15,50,12.90
2024,03,10,15,51,17.70
2024,03,10,15,52,19.30
2024,03,10,15,53,17.70
2024,03,10,15,54,20.90
2024,03,10,15,55,19.30
2024,03,10,15,56,24.20
2024,03,10,15,57,22.50
2024,03,10,15,58,19.30
2024,03,10,15,59,17.70
2024,03,10,16,00,20.90
2024,03,10,16,01,14.50
2024,03,10,16,02,19.30
2024,03,10,16,03,20.90
2024,03,10,16,04,22.50
2024,03,10,16,05,25.70
2024,03,10,16,06,24.20
2024,03,10,16,07,27.40
2024,03,10,16,08,29.00
2024,03,10,16,09,27.40
2024,03,10,16,10,30.60
2024,03,10,16,11,24.20
2024,03,10,16,12,24.20
2024,03,10,16,13,29.00
2024,03,10,16,14,20.90
2024,03,10,16,15,20.90
2024,03,10,16,16,22.50
2024,03,10,16,17,25.70
2024,03,10,16,18,29.00
2024,03,10,16,19,25.70
2024,03,10,16,20,24.20
2024,03,10,16,21,20.90
2024,03,10,16,22,19.30
2024,03,10,16,23,24.20
2024,03,10,16,24,20.90
2024,03,10,16,25,17.70
2024,03,10,16,26,20.90
2024,03,10,16,27,19.30
2024,03,10,16,28,17.70
2024,03,10,16,29,20.90
2024,03,10,16,30,20.90
2024,03,10,16,31,20.90
2024,03,10,16,32,16.10
2024,03,10,16,33,22.50
2024,03,10,16,34,25.70
2024,03,10,16,35,17.70
2024,03,10,16,36,20.90
2024,03,10,16,37,22.50
2024,03,10,16,38,19.30
2024,03,10,16,39,22.50
2024,03,10,16,40,24.20
2024,03,10,16,41,22.50
2024,03,10,16,42,19.30
2024,03,10,16,43,19.30
2024,03,10,16,44,16.10
2024,03,10,16,45,16.10
2024,03,10,16,46,17.70
2024,03,10,16,47,19.30
2024,03,10,16,48,19.30
2024,03,10,16,49,22.50
2024,03,10,16,50,24.20
2024,03,10,16,51,19.30
2024,03,10,16,52,16.10
2024,03,10,16,53,16.10
2024,03,10,16,54,20.90
2024,03,10,16,55,19.30
2024,03,10,16,56,20.90
2024,03,10,16,57,24.20
2024,03,10,16,58,20.90
2024,03,10,16,59,17.70
2024,03,10,17,00,16.10
2024,03,10,17,01,20.90
2024,03,10,17,02,16.10
2024,03,10,17,03,16.10
2024,03,10,17,04,17.70
2024,03,10,17,05,22.50
2024,03,10,17,06,20.90
2024,03,10,17,07,24.20
2024,03,10,17,08,20.90
2024,03,10,17,09,22.50
2024,03,10,17,10,25.70
2024,03,10,17,11,22.50
2024,03,10,17,12,27.40
2024,03,10,17,13,19.30
2024,03,10,17,14,20.90
2024,03,10,17,15,19.30
2024,03,10,17,16,24.20
2024,03,10,17,17,25.70
2024,03,10,17,18,22.50
2024,03,10,17,19,27.40
2024,03,10,17,20,24.20
2024,03,10,17,21,24.20
2024,03,10,17,22,17.70
2024,03,10,17,23,20.90
2024,03,10,17,24,16.10
2024,03,10,17,25,20.90
2024,03,10,17,26,22.50
2024,03,10,17,27,19.30
2024,03,10,17,28,22.50
2024,03,10,17,29,19.30
2024,03,10,17,30,16.10
2024,03,10,17,31,16.10
2024,03,10,17,32,17.70
2024,03,10,17,33,16.10
2024,03,10,17,34,19.30
2024,03,10,17,35,16.10
2024,03,10,17,36,17.70
2024,03,10,17,37,16.10
2024,03,10,17,38,19.30
2024,03,10,17,39,19.30
2024,03,10,17,40,17.70
2024,03,10,17,41,17.70
2024,03,10,17,42,16.10
2024,03,10,17,43,17.70
2024,03,10,17,44,17.70
2024,03,10,17,45,16.10
2024,03,10,17,46,14.50
2024,03,10,17,47,14.50
2024,03,10,17,48,16.10
2024,03,10,17,49,16.10
2024,03,10,17,50,16.10
2024,03,10,17,51,12.90
2024,03,10,17,52,14.50
2024,03,10,17,53,11.30
2024,03,10,17,54,16.10
2024,03,10,17,55,16.10
2024,03,10,17,56,16.10
2024,03,10,17,57,16.10
2024,03,10,17,58,14.50
2024,03,10,17,59,14.50
2024,03,10,18,00,17.70
2024,03,10,18,01,22.50
2024,03,10,18,02,16.10
2024,03,10,18,03,16.10
2024,03,10,18,04,14.50
2024,03,10,18,05,16.10
2024,03,10,18,06,20.90
2024,03,10,18,07,19.30
2024,03,10,18,08,17.70
2024,03,10,18,09,16.10
2024,03,10,18,10,17.70
2024,03,10,18,11,16.10
2024,03,10,18,12,12.90
2024,03,10,18,13,14.50
2024,03,10,18,14,17.70
2024,03,10,18,15,16.10
2024,03,10,18,16,16.10
2024,03,10,18,17,12.90
2024,03,10,18,18,9.60
2024,03,10,18,19,11.30
2024,03,10,18,20,9.60
2024,03,10,18,21,6.40
2024,03,10,18,22,9.60
2024,03,10,18,23,9.60
2024,03,10,18,24,11.30
2024,03,10,18,25,6.40
2024,03,10,18,26,8.10
2024,03,10,18,27,6.40
2024,03,10,18,28,6.40
2024,03,10,18,29,4.80
2024,03,10,18,30,4.80
2024,03,10,18,31,1.60
2024,03,10,18,32,4.80
2024,03,10,18,33,6.40
2024,03,10,18,34,4.80
2024,03,10,18,35,8.10
2024,03,10,18,36,8.10
2024,03,10,18,37,6.40
2024,03,10,18,38,6.40
2024,03,10,18,39,6.40
2024,03,10,18,40,4.80
2024,03,10,18,41,4.80
2024,03,10,18,42,8.10
2024,03,10,18,43,8.10
2024,03,10,18,44,8.10
2024,03,10,18,45,6.40
2024,03,10,18,46,6.40
2024,03,10,18,47,6.40
2024,03,10,18,48,8.10
2024,03,10,18,49,6.40
2024,03,10,18,50,4.80
2024,03,10,18,51,4.80
2024,03,10,18,52,8.10
2024,03,10,18,53,6.40
2024,03,10,18,54,6.40
2024,03,10,18,55,4.80
2024,03,10,18,56,11.30
2024,03,10,18,57,11.30
2024,03,10,18,58,14.50
2024,03,10,18,59,8.10
2024,03,10,19,00,8.10
2024,03,10,19,01,14.50
2024,03,10,19,02,12.90
2024,03,10,19,03,11.30
2024,03,10,19,04,9.60
2024,03,10,19,05,9.60
2024,03,10,19,06,11.30
2024,03,10,19,07,9.60
2024,03,10,19,08,8.10
2024,03,10,19,09,8.10
2024,03,10,19,10,8.10
2024,03,10,19,11,8.10
2024,03,10,19,12,11.30
2024,03,10,19,13,8.10
2024,03,10,19,14,11.30
2024,03,10,19,15,12.90
2024,03,10,19,16,11.30
2024,03,10,19,17,11.30
2024,03,10,19,18,9.60
2024,03,10,19,19,9.60
2024,03,10,19,20,9.60
2024,03,10,19,21,9.60
2024,03,10,19,22,12.90
2024,03,10,19,23,11.30
2024,03,10,19,24,9.60
2024,03,10,19,25,9.60
2024,03,10,19,26,9.60
2024,03,10,19,27,9.60
2024,03,10,19,28,9.60
2024,03,10,19,29,9.60
2024,03,10,19,30,8.10
2024,03,10,19,31,8.10
2024,03,10,19,32,8.10
2024,03,10,19,33,9.60
2024,03,10,19,34,9.60
2024,03,10,19,35,6.40
2024,03,10,19,36,6.40
2024,03,10,19,37,6.40
2024,03,10,19,38,6.40
2024,03,10,19,39,4.80
2024,03,10,19,40,6.40
2024,03,10,19,41,8.10
2024,03,10,19,42,8.10
2024,03,10,19,43,11.30
2024,03,10,19,44,11.30
2024,03,10,19,45,11.30
2024,03,10,19,46,12.90
2024,03,10,19,47,9.60
2024,03,10,19,48,11.30
2024,03,10,19,49,11.30
2024,03,10,19,50,8.10
2024,03,10,19,51,11.30
2024,03,10,19,52,9.60
2024,03,10,19,53,8.10
2024,03,10,19,54,9.60
2024,03,10,19,55,9.60
2024,03,10,19,56,11.30
2024,03,10,19,57,11.30
2024,03,10,19,58,6.40
2024,03,10,19,59,6.40
2024,03,10,20,00,4.80
2024,03,10,20,01,8.10
2024,03,10,20,02,6.40
2024,03,10,20,03,8.10
2024,03,10,20,04,11.30
2024,03,10,20,05,11.30
2024,03,10,20,06,19.30
2024,03,10,20,07,19.30
2024,03,10,20,08,22.50
2024,03,10,20,09,19.30
2024,03,10,20,10,19.30
2024,03,10,20,11,17.70
2024,03,10,20,12,19.30